Dewpoint
67 67 66 66 65 64 65 63 63 65 65 64 63 63 62 63 62 59 58 59 56 57 53 56 63 65 65 67 64 65 65 67 67 63 64 64 70 70 70 70 70 70 70 69 69 70 70 69 69 69 69 69 69 69 69 69 69 69 69 69 69 69 69 69 69 69 69 69 69 68 68 68 68 68
70 68 67 67 64 65 66 63 63 65 67 64 64 64 64 65 63 62 60 60 60 59 57 53 62 67 66 66 65 65 64 70 65 63 64 63 66 69 68 69 69 69 69 69 68 68 68 68 68 68 68 68 68 67 68 68 68 68 68 68 68 68 68 68 69 69 69 68 68 68 68 68 68 68
70 70 68 69 67 67 67 67 64 65 67 66 64 65 65 65 65 65 63 61 62 60 60 57 58 62 66 62 62 63 64 68 63 62 65 65 69 68 69 68 68 68 68 68 68 67 67 66 66 67 68 67 68 68 68 68 68 68 68 68 68 68 68 68 68 68 68 68 68 68 68 68 68 68
70 70 69 69 69 68 67 66 65 64 67 67 64 65 66 66 66 66 65 63 62 61 58 59 60 61 64 64 63 64 63 66 67 64 64 69 68 66 65 67 68 67 68 67 67 66 66 65 65 66 67 67 67 67 67 68 68 68 68 67 67 67 67 67 67 67 67 67 67 67 67 67 67 68
70 71 70 69 69 69 68 67 66 64 66 67 65 66 65 64 66 66 65 64 63 64 62 60 60 59 63 63 64 64 63 66 65 65 65 67 65 63 62 65 66 67 66 67 66 66 65 65 65 65 66 67 67 67 67 67 67 66 66 66 66 66 66 66 66 66 66 66 66 67 67 67 67 67
70 70 71 69 69 70 69 67 65 64 65 66 64 64 65 64 66 67 66 64 64 63 64 62 62 62 60 63 65 64 63 63 66 63 64 65 65 65 64 63 65 65 66 65 65 66 65 65 65 65 66 66 67 66 67 66 66 65 65 65 65 64 64 64 64 64 64 64 65 65 65 66 66 66
71 70 71 70 69 68 68 68 65 64 65 66 65 65 65 66 65 67 67 66 64 63 63 65 63 62 63 60 65 64 64 66 65 65 65 63 64 64 64 63 60 64 65 65 65 65 65 65 65 65 65 65 65 65 65 64 64 64 63 63 63 63 63 63 62 62 63 63 63 63 63 64 64 64
71 70 71 70 69 69 69 68 66 65 65 66 67 66 67 67 66 67 67 67 66 65 63 65 63 62 63 62 64 65 65 63 64 65 66 65 65 64 64 64 63 66 65 65 65 65 65 64 64 64 64 63 63 63 63 63 63 62 62 62 62 61 60 60 60 60 60 61 61 61 61 62 62 63
72 71 71 71 70 69 68 69 66 65 66 66 66 66 67 67 66 65 67 67 66 66 65 64 65 64 64 64 65 66 65 65 65 66 66 65 67 66 63 62 61 67 64 64 64 63 63 64 64 64 63 63 62 62 62 62 62 62 61 60 59 59 59 59 59 59 59 59 59 60 60 61 61 62
72 72 72 71 70 69 68 68 68 67 66 66 66 67 67 67 67 67 67 68 67 66 66 66 64 65 63 64 65 66 66 64 64 66 67 67 66 66 65 63 60 64 63 63 63 63 62 62 62 63 63 63 63 62 62 62 61 60 59 57 57 58 57 57 57 58 58 58 57 58 58 59 60 60
72 72 72 72 71 69 69 68 69 67 66 66 67 68 68 67 68 66 66 67 67 66 66 65 65 64 65 65 64 66 66 66 65 64 64 65 66 68 67 66 64 62 61 62 63 62 63 63 62 61 62 63 63 62 61 60 60 59 58 56 56 56 56 57 57 56 56 57 57 57 57 57 58 59
72 72 72 71 70 69 69 69 70 69 67 67 67 67 67 67 68 67 66 66 66 66 65 64 64 64 65 65 65 65 67 66 66 65 63 62 63 66 70 70 69 67 67 63 58 61 61 61 62 61 61 62 62 61 61 61 61 60 57 57 59 60 58 57 57 56 56 56 56 56 56 57 57 58
72 72 72 71 70 72 69 67 69 67 67 67 67 68 68 68 68 68 67 66 67 66 65 64 65 64 64 65 66 64 65 66 65 66 65 65 65 65 66 68 69 68 67 64 59 59 60 58 58 58 62 65 63 62 62 62 63 59 58 58 60 60 58 58 57 57 56 55 55 55 55 56 56 56
72 71 70 71 69 68 67 66 67 66 66 66 66 68 69 68 68 68 67 67 67 66 65 64 64 63 63 63 65 63 64 68 68 66 65 65 68 66 65 66 68 66 64 61 63 63 61 57 57 58 57 56 58 57 62 57 57 59 58 58 59 59 59 58 57 56 56 55 55 54 54 54 55 55
72 72 71 71 71 70 66 69 65 66 65 65 67 69 68 68 69 68 67 67 67 66 65 65 65 63 64 63 63 63 63 64 66 66 67 66 65 64 62 60 63 65 65 64 63 63 62 60 58 59 57 55 58 56 57 58 59 58 59 58 58 58 59 58 58 57 56 55 55 55 54 55 55 55
73 72 71 71 71 71 72 71 70 67 64 64 65 67 68 68 68 68 69 68 67 67 66 65 64 64 64 64 64 61 61 65 64 65 66 67 66 64 62 62 61 65 64 63 62 61 61 59 55 56 55 55 54 55 59 58 57 54 53 55 57 58 58 58 58 57 57 56 57 57 56 56 56 56
74 73 72 71 71 71 67 70 71 71 70 64 64 65 68 68 67 65 66 69 70 67 67 66 66 64 64 64 64 63 63 65 63 65 65 65 64 64 62 62 59 62 65 63 60 57 57 55 53 50 52 49 52 56 58 57 56 55 56 57 57 57 57 57 57 56 57 56 56 55 55 55 55 55
73 74 73 72 72 72 73 72 71 71 71 70 69 69 69 69 69 66 65 65 67 70 68 67 66 66 66 66 66 66 66 65 65 63 63 64 62 62 62 63 63 64 61 59 57 58 55 52 49 51 52 51 52 55 58 57 57 57 54 55 56 56 56 56 55 55 55 55 55 55 54 53 52 52
74 74 73 73 73 73 74 72 71 72 71 70 69 69 67 67 67 68 66 64 63 66 65 67 67 67 67 67 67 67 67 67 67 65 65 64 63 63 63 64 63 60 60 59 58 56 54 53 51 50 51 48 52 52 56 56 56 55 55 56 56 55 55 55 55 55 55 55 54 54 53 52 52 52
75 74 74 74 74 73 74 68 64 68 72 71 69 68 67 67 66 66 65 63 63 63 63 65 64 64 64 64 67 68 65 68 68 65 65 66 65 64 61 57 54 57 58 59 59 55 53 52 45 49 49 50 51 51 49 56 55 55 56 55 54 54 52 53 54 54 54 54 54 54 53 51 50 51
75 75 75 75 74 73 74 67 62 64 67 71 70 68 67 66 65 64 65 63 61 61 61 61 61 60 60 60 60 60 63 68 66 65 63 62 59 59 57 56 55 53 56 57 56 52 50 51 50 48 48 50 50 48 48 53 54 56 53 53 54 52 51 51 51 52 53 54 54 53 53 51 50 51
75 74 70 73 75 74 75 63 61 62 67 72 71 69 67 66 65 64 63 63 65 61 60 61 60 60 61 61 61 62 61 61 65 66 62 60 57 57 58 56 53 50 52 53 52 54 49 50 51 50 49 50 48 45 49 49 52 52 52 52 52 51 51 50 50 51 52 53 53 53 52 51 51 56
74 75 71 68 71 72 72 59 59 60 66 72 71 70 68 66 66 65 64 63 65 66 65 66 66 67 65 68 68 67 64 66 67 64 63 59 57 55 54 52 53 51 50 53 55 53 52 50 47 48 46 45 45 45 47 48 50 51 51 48 55 52 52 50 50 49 49 50 51 52 52 51 51 55
73 73 73 70 63 64 63 58 57 58 61 70 72 71 69 67 66 66 64 66 66 67 65 65 66 66 66 66 67 65 64 63 65 64 62 59 57 57 55 53 51 50 52 55 51 54 49 49 47 49 46 44 43 44 46 48 50 48 46 49 46 49 53 52 50 49 48 48 50 51 51 50 51 55
71 71 71 73 65 61 59 57 55 56 58 63 72 72 70 69 68 65 63 68 66 67 66 67 66 66 66 66 65 64 63 61 62 61 59 58 55 55 53 49 47 47 48 51 54 54 51 48 48 48 48 48 44 44 48 48 48 46 49 49 48 47 49 48 47 50 51 49 48 48 49 50 50 55
72 72 72 73 68 59 57 56 54 55 57 60 72 73 63 61 60 66 65 68 67 66 66 66 65 65 65 64 63 63 61 60 60 59 56 53 52 53 51 53 56 50 52 57 54 52 52 51 49 47 46 45 43 43 44 47 48 46 49 47 46 48 49 47 44 49 51 50 51 56 54 50 51 51
71 72 73 72 63 58 55 54 54 54 56 58 67 62 59 57 59 63 65 68 67 67 66 66 65 65 64 63 62 62 61 60 61 56 53 54 55 57 52 54 54 55 57 58 54 54 54 52 52 50 48 47 46 44 45 44 44 47 45 43 48 47 46 43 44 45 46 48 50 49 50 51 51 51
71 72 74 71 58 56 53 53 53 54 55 62 59 57 58 57 60 66 68 67 67 66 65 65 65 65 64 63 62 62 63 61 62 56 55 58 55 59 55 57 55 53 55 53 53 53 55 53 52 54 53 47 45 44 43 42 42 43 43 45 45 42 43 45 44 48 49 51 51 51 50 49 54 59
72 66 63 62 54 55 54 53 54 54 54 56 57 56 57 59 66 67 68 67 67 66 65 64 64 64 65 64 64 64 64 64 61 60 57 56 57 58 59 59 59 57 53 50 52 53 53 52 52 53 54 52 46 44 41 42 42 42 44 45 42 42 45 46 46 47 49 49 48 49 49 49 49 50
64 62 59 57 54 54 56 59 61 62 61 56 57 57 58 65 66 67 68 67 66 66 65 64 63 64 64 63 66 68 63 63 59 58 59 57 53 53 57 58 58 57 54 53 51 51 52 53 53 54 51 51 47 46 46 42 44 43 44 42 42 44 46 44 46 48 48 50 49 50 50 49 49 50
68 68 67 62 56 56 56 58 58 60 59 58 59 62 63 66 66 66 67 67 66 65 65 64 64 64 65 64 62 61 61 61 60 59 60 57 55 56 57 59 57 56 55 54 51 51 51 52 54 53 52 50 48 49 48 45 43 42 42 42 43 42 43 46 47 46 48 49 50 49 50 48 48 51
72 73 57 56 60 60 59 61 62 63 62 61 61 64 65 66 66 65 64 65 66 65 66 65 66 66 64 61 60 59 59 58 58 58 58 57 57 55 57 57 56 54 54 52 51 56 55 54 53 54 53 52 50 50 49 48 45 44 44 43 43 42 44 42 42 45 49 51 49 49 51 48 47 48
72 69 67 63 62 62 61 63 63 64 63 62 62 64 67 66 67 66 65 65 65 66 66 66 66 64 62 60 60 58 58 59 58 58 59 59 60 58 57 55 54 52 50 50 53 56 55 54 54 54 54 53 52 52 48 46 45 45 43 44 44 42 42 41 43 47 53 52 50 48 51 50 49 48
71 70 67 65 64 63 63 63 63 64 63 62 63 64 63 67 67 66 65 65 65 66 66 66 65 63 60 59 59 59 58 59 58 58 58 59 60 59 55 53 54 53 54 50 49 49 53 54 54 53 54 54 52 53 52 48 46 46 45 45 44 43 43 45 44 48 52 50 49 47 47 47 47 46
69 69 68 67 65 64 64 64 64 64 63 62 63 63 65 66 66 65 66 67 65 65 65 65 63 61 59 59 60 59 58 57 57 57 58 58 59 57 55 54 53 53 51 50 49 52 50 52 51 48 51 50 50 53 54 53 50 50 49 47 47 44 45 45 44 48 50 53 48 49 47 46 45 44
67 68 68 68 67 64 64 64 64 64 63 63 63 63 64 65 66 65 66 66 66 65 64 63 61 60 59 59 59 58 56 55 55 56 56 56 56 56 54 54 53 53 51 49 48 49 49 47 46 45 43 43 43 42 46 54 55 52 47 45 44 50 47 47 48 48 48 48 52 48 45 45 44 44
67 67 67 67 67 66 64 64 65 64 64 63 63 64 64 64 65 66 66 64 66 64 63 62 60 59 58 58 57 55 55 55 54 55 56 55 56 56 53 54 52 54 51 50 49 49 50 46 45 43 40 38 37 36 36 56 53 55 53 44 50 45 49 49 50 49 48 49 50 45 43 42 42 41
68 68 67 67 67 66 65 65 65 64 63 63 63 64 64 65 65 66 66 66 64 63 61 62 61 60 59 57 56 56 55 54 54 54 54 56 56 53 52 51 50 50 49 49 50 49 48 46 44 42 41 38 37 35 35 42 53 52 52 59 45 44 44 48 45 46 50 48 46 44 42 41 41 43
67 68 67 66 66 66 65 65 64 64 64 63 63 64 64 65 65 66 65 64 63 62 62 61 61 59 58 57 56 54 54 53 53 54 54 53 55 53 51 49 49 49 48 47 48 48 47 45 43 43 41 40 39 39 40 41 40 41 45 49 52 46 44 45 46 46 45 45 45 46 46 49 44 47
64 67 68 67 66 66 66 65 65 64 64 64 64 64 64 64 64 64 63 62 62 62 62 60 59 57 58 57 56 55 53 54 53 52 52 52 52 51 48 49 48 48 47 46 45 46 45 44 45 43 41 42 44 45 42 41 38 39 41 53 47 50 48 47 45 44 45 46 47 45 43 42 41 43
63 65 66 67 66 66 65 65 64 64 63 64 64 61 64 64 64 63 63 62 61 62 61 61 59 58 57 56 54 53 53 53 52 52 53 53 52 50 49 50 49 48 47 47 46 44 44 45 56 52 55 51 49 45 37 35 35 39 42 45 46 47 46 48 52 49 48 50 47 44 41 40 39 39
63 63 65 66 65 65 65 64 64 63 63 63 64 63 64 63 63 59 61 60 61 61 61 60 59 57 57 56 53 52 53 53 53 53 52 51 49 48 49 48 47 48 47 45 44 43 46 51 51 51 49 45 43 39 35 35 39 42 46 43 47 50 46 46 47 51 58 49 46 42 40 38 38 37
62 63 64 65 64 64 63 63 63 63 63 63 63 63 63 63 62 62 62 62 62 61 61 60 58 57 55 54 54 53 52 53 53 53 51 49 45 47 48 47 47 46 45 44 44 43 43 46 49 45 44 42 40 39 40 42 43 42 43 41 40 44 53 49 47 48 49 50 50 49 46 41 38 35
64 64 65 64 64 63 63 63 63 63 63 63 63 63 63 62 62 63 63 62 62 61 59 58 57 57 56 56 55 54 53 53 53 53 48 48 48 48 48 47 46 46 43 42 41 40 40 41 42 42 40 39 40 41 40 41 40 42 39 39 45 44 42 44 51 50 49 50 50 50 50 50 49 46
65 65 64 64 64 64 63 63 63 63 63 63 63 63 62 62 62 62 62 62 60 60 59 58 58 57 56 56 55 54 55 53 51 48 50 49 48 48 46 44 44 44 43 42 40 42 42 41 40 40 40 40 40 40 40 40 39 40 39 41 40 42 43 43 43 42 43 44 46 50 50 50 50 50